Weather Service Report


670 
ASUS41 KCTP 051610
RWRCTP

REGIONAL WEATHER ROUNDUP
NATIONAL WEATHER SERVICE STATE COLLEGE PA
1100 AM EST MON DEC 05 2016

Note: "fair" indicates few or no clouds below 12,000 feet with no 
significant weather and/or obstructions to visibility.

* = STATION THAT DOES NOT REPORT PRECIPITATION /E.G. RAIN...SNOW...ETC/
    THUNDER OR FOG.

PAZ002>004-007>009-013>016-020>023-029>032-051700-
WESTERN PENNSYLVANIA
  
CITY           SKY/WX    TMP DP  RH WIND       PRES   REMARKS
ERIE           CLOUDY    42  31  64 W15G28    30.03S                  
MEADVILLE      CLOUDY    35  31  85 SW8       30.02S                  
FRANKLIN*        N/A     36  28  75 W7        30.03F                  
NEW CASTLE     CLOUDY    38  31  76 W6        30.07S                  
BEAVER COUNTY  CLOUDY    37  30  75 W7        30.07R                  
BUTLER*        CLOUDY    37  28  70 W10       30.09S                  
PITTSBURGH INT CLOUDY    39  32  76 W13       30.08S                  
PITTSBURGH     CLOUDY    38  28  67 NW7       30.07R                  
INDIANA*       CLOUDY    39  34  81 NW10      30.07R                  
LATROBE        PTSUNNY   39  32  75 NW12G21   30.07R                  
WASHINGTON CO* CLOUDY    39  30  70 W7        30.09S                  
$$

PAZ004>006-010>012-017>019-024>028-033>037-041-042-045-046-049>053-051700-
CENTRAL PENNSYLVANIA
  
CITY           SKY/WX    TMP DP  RH WIND       PRES   REMARKS
BRADFORD       MIX PCPN  33  31  92 W9        29.97R                  
DUBOIS         CLOUDY    36  31  82 W9        29.99F                  
CLEARFIELD     CLOUDY    37  32  82 W9G18     30.02R                  
JOHNSTOWN      CLOUDY    36  31  82 W15G23    29.98S                  
ALTOONA        PTSUNNY   42  32  67 W13G22    30.00R                  
STATE COLLEGE  PTSUNNY   41  34  75 W17G33    29.99R                  
WILLIAMSPORT   CLOUDY    42  37  82 CALM      29.98S                  
SELINSGROVE    PTSUNNY   42  40  92 SW5       30.00S                  
FT INDIANTOWN  CLOUDY    40  40 100 SW5       30.00F                  
CAPITAL CITY   PTSUNNY   44  39  82 NW5       30.02S                  
HARRISBURG     PTSUNNY   44  41  89 W3        30.01S                  
YORK           PTSUNNY   45  41  86 NW5       30.00F                  
$$

PAZ038>040-043-044-047-048-054-055-060>062-067>071-051700-
EASTERN PENNSYLVANIA
  
CITY           SKY/WX    TMP DP  RH WIND       PRES   REMARKS
SCRANTON       PTSUNNY   39  36  89 SW13      29.95S                  
MOUNT POCONO   CLOUDY    33  31  92 W13G18    29.91F                  
ALLENTOWN      FOG       39  36  89 W6        30.00F VSB 3/4          
QUAKERTOWN*    CLOUDY    39  39 100 W8        30.01F                  
READING        PTSUNNY   42  37  82 W7        30.00F                  
LANCASTER      CLOUDY    44  42  93 W9        30.01S                  
COATESVILLE    CLOUDY    43  39  87 W9        30.01F                  
POTTSTOWN      CLOUDY    42  39  89 W5        30.02F                  
BLUE BELL      CLOUDY    41  39  93 W3        30.01F                  
DOYLESTOWN     CLOUDY    43  40  89 W9        30.00F                  
WILLOW GROVE   NOT AVBL                                               
NORTH PHILA    CLOUDY    45  41  86 NW13      30.03F                  
PHILADELPHIA   CLOUDY    44  40  85 W8        30.02F                  
$$
  

Return to Home page


Western Regional Climate Center, wrcc@dri.edu